Location: Saint Louis
(38.6272°N, 90.1978°W)
Time: 04:42:38
(UTC-05:00)

ISS - Pass Details

Date: 24 April 2013
Orbit: 401 x 404 km, 51.6° (Epoch: 31 July)

Event Time Altitude Azimuth Distance (km) Brightness Sun altitude
Rises 21:26:33 0° 308° (NW) 2,363 2.3 -18.3°
Reaches altitude 10° 21:28:38 10° 307° (NW) 1,500 0.8 -18.7°
Maximum altitude 21:32:00 82° 221° (SW) 429 -3.3 -19.2°
Enters shadow 21:32:15 74° 161° (SSE) 441 -3.4 -19.2°
